SCP
0 0 0 0 0 0 0 0 -0 -0 -0 -0 -0 0 0 0 0 0 0 0 0 0 0 0 0 0 0 0 0 0 0 0
0 0 -0 0 0 0 0 0 0 0 -0 -0 -0 -0 -0 -0 0 0 0 0 0 0 0 0 0 0 0 0 0 0 0 0
0 0 0 -0 -0 -0 -0 -0 -0 -0 -0 -0 -0 0 -0 -0 -0 -0 -0 0 0 0 0 0 0 0 0 0 0 0 0 0
0 0 0 -0 -0 -0 -0 -0 -0 0 0 -0 -0 -0 -0 -0 -0 -0 -0 0 0 0 0 0 0 -0 0 0 0 0 0 0
0 0 0 0 -0 -0 -0 -0 -0 -0 0 0 0 0 -0 -0 -0 -0 -0 -0 0 0 0 0 0 0 0 0 0 0 0 0
0 0 0 0 0 0 0 -0 -0 -0 0 -0 -0 -0 -0 -0 -0 -0 -0 0 0 0 0 0 0 0 0 0 0 0 0 0
0 0 0 0 0 0 0 0 0 0 0 0 0 0 0 0 0 0 0 0 0 0 0 0 0 0 0 0 0 0 0 0
0 0 0 0 0 0 0 0 0 0 -0 0 0 0 0 0 0 0 0 0 0 0 0 0 0 0 0 0 0 0 0 0
0 0 0 0 0 0 0 0 0 0 0 0 0 0 0 0 0 0 0 0 0 0 0 0 0 0 0 0 0 0 0 0
0 0 0 0 0 0 0 0 0 0 0 0 0 0 0 0 0 0 0 0 0 0 0 0 0 0 0 0 0 0 0 0
0 -0 0 0 0 0 0 0 0 0 0 0 0 0 0 0 0 0 0 0 0 0 0 0 0 0 0 0 0 0 0 0
0 0 0 0 0 0 0 0 0 0 0 0 0 0 0 0 0 0 0 0 0 0 0 0 0 0 0 0 0 0 0 0
0 0 0 0 0 0 0 0 0 0 0 0 0 0 0 0 0 0 0 0 0 0 0 0 0 0 0 0 0 0 0 0
-0 0 0 0 0 0 0 0 0 0 0 0 0 0 0 0 0 0 0 0 0 0 0 0 0 0 0 0 0 0 0 0
-0 0 0 0 0 0 0 0 0 0 0 0 0 0 0 0 0 0 0 0 0 0 0 0 0 0 0 0 0 0 0 0
-0 -0 0 0 0 0 0 0 0 0 0 0 0 0 0 0 0 0 0 0 0 0 0 0 0 0 0 0 0 0 0 0
-0 0 0 0 0 0 0 0 0 0 0 0 0 0 0 0 0 0 0 0 0 0 0 0 0 0 0 0 0 0 0 0
-0 0 0 0 0 0 0 0 0 0 0 0 0 0 0 0 0 0 0 0 0 0 0 0 0 0 0 0 0 0 0 0
0 0 0 0 0 0 0 0 0 0 0 0 0 0 0 0 0 0 0 0 0 0 0 0 0 0 0 0 0 0 0 0
0 0 0 0 0 0 0 0 0 0 0 0 0 0 0 0 0 0 0 0 0 0 0 0 0 0 0 0 0 0 0 0
Wind_Speed_500mb
54 61 70 85 98 103 91 99 103 116 117 108 96 91 82 81 79 75 69 63 64 65 56 53 53 49 45 41 40 38 38 36
44 54 62 72 85 97 104 104 102 100 102 100 93 88 80 73 68 64 56 54 58 56 46 41 39 36 36 34 37 35 36 33
37 48 58 64 68 77 86 88 91 91 92 92 80 78 79 74 70 64 61 52 52 49 44 41 37 34 34 34 32 31 28 29
27 39 46 52 57 63 69 75 78 76 77 77 76 74 72 69 63 58 53 48 48 49 44 40 37 36 36 34 32 30 27 24
22 28 35 41 45 49 54 57 59 58 59 58 56 53 54 52 42 37 35 37 37 36 32 30 26 28 27 25 25 24 24 23
22 25 30 33 39 43 44 44 45 45 46 47 44 43 42 39 33 28 27 29 27 24 22 21 18 21 21 20 19 16 15 15
21 21 26 29 30 30 32 36 34 33 35 35 33 30 30 25 24 19 20 21 21 18 17 16 15 14 14 14 14 15 13 12
24 23 21 22 21 21 22 22 23 26 30 31 31 29 30 28 24 20 20 21 20 20 19 17 14 12 12 11 11 11 10 8
27 22 20 16 13 14 16 20 24 25 26 26 29 32 32 31 28 25 23 22 21 19 17 15 12 8 9 10 9 8 9 8
26 19 13 8 8 12 17 20 20 21 24 25 25 25 25 26 27 26 24 24 23 20 16 13 10 8 9 10 11 11 10 8
25 14 13 15 15 15 19 22 24 28 30 31 30 29 28 28 27 27 27 25 23 21 17 13 12 12 12 12 13 11 9 9
26 21 17 19 16 14 18 19 25 31 34 34 35 36 36 35 32 30 28 27 25 21 20 18 15 13 12 11 10 10 12 10
32 29 24 20 15 12 15 21 25 29 35 39 41 40 40 37 35 33 31 29 28 27 24 20 17 15 10 9 8 8 9 6
37 32 24 17 13 8 14 20 24 28 29 33 38 40 41 42 41 39 35 31 29 27 24 20 16 13 9 2 4 5 4 3
41 31 21 13 7 5 11 16 21 26 31 35 38 41 44 45 43 40 37 31 26 27 23 13 12 17 11 7 6 6 5 7
37 29 21 11 3 3 9 14 21 26 32 38 42 44 45 45 42 38 32 23 22 22 18 9 13 18 15 8 8 10 9 10
38 28 19 12 4 4 9 15 20 25 31 35 39 43 45 43 38 35 31 18 11 9 16 13 16 23 14 11 8 8 11 13
35 27 18 11 3 4 10 14 19 23 30 36 40 42 42 38 32 26 24 21 14 6 4 14 23 18 17 16 11 10 9 12
36 26 17 11 8 4 8 12 17 23 29 35 39 40 37 36 32 28 24 18 13 12 11 18 21 22 20 17 13 8 6 9
35 27 20 16 12 6 6 9 14 20 28 34 38 35 34 31 28 28 27 24 17 8 10 17 24 25 24 19 12 8 5 4
Wind_Direction_500mb
43 48 57 61 59 59 61 64 61 68 72 74 81 80 76 73 75 78 80 86 86 86 82 82 84 85 88 96 98 89 87 89
49 53 58 65 67 67 63 60 59 64 63 65 70 71 70 68 69 69 73 73 77 77 77 75 76 80 86 86 87 88 90 96
59 61 62 64 69 75 79 77 76 71 69 71 71 69 70 65 65 63 63 61 65 67 67 65 64 68 70 73 78 81 84 88
74 66 66 66 67 71 74 79 81 76 75 75 73 70 67 65 62 55 54 63 64 60 59 62 60 57 57 57 60 66 71 72
91 75 68 65 65 67 68 70 72 74 74 72 70 70 66 63 65 67 58 46 46 52 56 55 58 64 61 53 48 50 52 52
99 88 82 74 67 62 63 62 60 59 56 54 53 49 44 47 46 42 40 41 40 40 42 42 34 38 38 37 38 36 38 39
119 106 97 90 79 68 54 46 43 43 43 40 39 36 34 34 28 24 22 22 20 19 25 24 27 33 26 17 12 11 11 5
144 130 115 104 91 75 53 33 23 16 10 8 9 6 7 11 11 11 9 8 5 3 1 357 358 7 1 2 357 354 351 2
152 142 128 110 85 52 27 10 7 9 13 14 11 9 6 2 1 1 355 351 352 353 352 348 341 343 343 345 345 350 338 340
158 149 135 109 70 53 47 37 30 31 28 24 19 12 5 360 356 351 348 347 344 342 337 331 333 324 325 330 329 329 324 333
165 155 129 111 91 71 60 48 37 31 27 23 19 14 8 4 359 354 347 340 335 330 328 324 320 310 311 317 321 321 328 345
167 158 140 115 91 74 66 56 43 32 25 17 11 6 1 355 349 342 336 331 326 321 316 313 309 303 294 304 317 325 337 357
165 153 143 128 105 74 58 50 41 33 24 18 13 6 0 354 346 336 327 318 312 308 309 308 306 303 297 290 296 310 325 336
160 158 150 130 110 65 41 36 31 24 15 9 7 4 359 352 344 336 329 319 311 307 303 302 305 306 310 181 273 292 309 306
164 159 154 156 123 46 15 12 9 8 4 2 359 355 353 350 344 338 332 327 328 329 321 312 311 311 312 281 266 287 307 310
164 161 166 160 172 340 347 348 350 350 353 356 355 351 350 347 343 338 334 332 348 329 337 302 297 313 310 280 260 248 257 283
168 172 168 164 139 356 339 339 340 343 349 349 346 347 345 345 341 337 334 324 284 310 329 333 317 321 309 304 301 291 268 248
169 173 175 162 137 322 334 331 337 340 343 342 342 342 342 344 345 344 336 325 305 254 209 289 310 325 324 319 324 305 288 244
176 177 177 180 206 259 309 327 335 342 341 340 341 341 346 350 349 353 348 341 318 288 240 251 279 307 321 320 330 323 305 262
179 182 185 190 201 230 285 318 338 339 344 340 340 344 354 354 357 357 357 356 358 318 260 256 274 295 306 312 317 320 316 296
Wind_Speed_850mb
54 61 70 85 98 103 91 99 103 116 117 108 96 91 82 81 79 75 69 63 64 65 56 53 53 49 45 41 40 38 38 36
44 54 62 72 85 97 104 104 102 100 102 100 93 88 80 73 68 64 56 54 58 56 46 41 39 36 36 34 37 35 36 33
37 48 58 64 68 77 86 88 91 91 92 92 80 78 79 74 70 64 61 52 52 49 44 41 37 34 34 34 32 31 28 29
27 39 46 52 57 63 69 75 78 76 77 77 76 74 72 69 63 58 53 48 48 49 44 40 37 36 36 34 32 30 27 24
22 28 35 41 45 49 54 57 59 58 59 58 56 53 54 52 42 37 35 37 37 36 32 30 26 28 27 25 25 24 24 23
22 25 30 33 39 43 44 44 45 45 46 47 44 43 42 39 33 28 27 29 27 24 22 21 18 21 21 20 19 16 15 15
21 21 26 29 30 30 32 36 34 33 35 35 33 30 30 25 24 19 20 21 21 18 17 16 15 14 14 14 14 15 13 12
24 23 21 22 21 21 22 22 23 26 30 31 31 29 30 28 24 20 20 21 20 20 19 17 14 12 12 11 11 11 10 8
27 22 20 16 13 14 16 20 24 25 26 26 29 32 32 31 28 25 23 22 21 19 17 15 12 8 9 10 9 8 9 8
26 19 13 8 8 12 17 20 20 21 24 25 25 25 25 26 27 26 24 24 23 20 16 13 10 8 9 10 11 11 10 8
25 14 13 15 15 15 19 22 24 28 30 31 30 29 28 28 27 27 27 25 23 21 17 13 12 12 12 12 13 11 9 9
26 21 17 19 16 14 18 19 25 31 34 34 35 36 36 35 32 30 28 27 25 21 20 18 15 13 12 11 10 10 12 10
32 29 24 20 15 12 15 21 25 29 35 39 41 40 40 37 35 33 31 29 28 27 24 20 17 15 10 9 8 8 9 6
37 32 24 17 13 8 14 20 24 28 29 33 38 40 41 42 41 39 35 31 29 27 24 20 16 13 9 2 4 5 4 3
41 31 21 13 7 5 11 16 21 26 31 35 38 41 44 45 43 40 37 31 26 27 23 13 12 17 11 7 6 6 5 7
37 29 21 11 3 3 9 14 21 26 32 38 42 44 45 45 42 38 32 23 22 22 18 9 13 18 15 8 8 10 9 10
38 28 19 12 4 4 9 15 20 25 31 35 39 43 45 43 38 35 31 18 11 9 16 13 16 23 14 11 8 8 11 13
35 27 18 11 3 4 10 14 19 23 30 36 40 42 42 38 32 26 24 21 14 6 4 14 23 18 17 16 11 10 9 12
36 26 17 11 8 4 8 12 17 23 29 35 39 40 37 36 32 28 24 18 13 12 11 18 21 22 20 17 13 8 6 9
35 27 20 16 12 6 6 9 14 20 28 34 38 35 34 31 28 28 27 24 17 8 10 17 24 25 24 19 12 8 5 4
Wind_Direction_850mb
43 48 57 61 59 59 61 64 61 68 72 74 81 80 76 73 75 78 80 86 86 86 82 82 84 85 88 96 98 89 87 89
49 53 58 65 67 67 63 60 59 64 63 65 70 71 70 68 69 69 73 73 77 77 77 75 76 80 86 86 87 88 90 96
59 61 62 64 69 75 79 77 76 71 69 71 71 69 70 65 65 63 63 61 65 67 67 65 64 68 70 73 78 81 84 88
74 66 66 66 67 71 74 79 81 76 75 75 73 70 67 65 62 55 54 63 64 60 59 62 60 57 57 57 60 66 71 72
91 75 68 65 65 67 68 70 72 74 74 72 70 70 66 63 65 67 58 46 46 52 56 55 58 64 61 53 48 50 52 52
99 88 82 74 67 62 63 62 60 59 56 54 53 49 44 47 46 42 40 41 40 40 42 42 34 38 38 37 38 36 38 39
119 106 97 90 79 68 54 46 43 43 43 40 39 36 34 34 28 24 22 22 20 19 25 24 27 33 26 17 12 11 11 5
144 130 115 104 91 75 53 33 23 16 10 8 9 6 7 11 11 11 9 8 5 3 1 357 358 7 1 2 357 354 351 2
152 142 128 110 85 52 27 10 7 9 13 14 11 9 6 2 1 1 355 351 352 353 352 348 341 343 343 345 345 350 338 340
158 149 135 109 70 53 47 37 30 31 28 24 19 12 5 360 356 351 348 347 344 342 337 331 333 324 325 330 329 329 324 333
165 155 129 111 91 71 60 48 37 31 27 23 19 14 8 4 359 354 347 340 335 330 328 324 320 310 311 317 321 321 328 345
167 158 140 115 91 74 66 56 43 32 25 17 11 6 1 355 349 342 336 331 326 321 316 313 309 303 294 304 317 325 337 357
165 153 143 128 105 74 58 50 41 33 24 18 13 6 0 354 346 336 327 318 312 308 309 308 306 303 297 290 296 310 325 336
160 158 150 130 110 65 41 36 31 24 15 9 7 4 359 352 344 336 329 319 311 307 303 302 305 306 310 181 273 292 309 306
164 159 154 156 123 46 15 12 9 8 4 2 359 355 353 350 344 338 332 327 328 329 321 312 311 311 312 281 266 287 307 310
164 161 166 160 172 340 347 348 350 350 353 356 355 351 350 347 343 338 334 332 348 329 337 302 297 313 310 280 260 248 257 283
168 172 168 164 139 356 339 339 340 343 349 349 346 347 345 345 341 337 334 324 284 310 329 333 317 321 309 304 301 291 268 248
169 173 175 162 137 322 334 331 337 340 343 342 342 342 342 344 345 344 336 325 305 254 209 289 310 325 324 319 324 305 288 244
176 177 177 180 206 259 309 327 335 342 341 340 341 341 346 350 349 353 348 341 318 288 240 251 279 307 321 320 330 323 305 262
179 182 185 190 201 230 285 318 338 339 344 340 340 344 354 354 357 357 357 356 358 318 260 256 274 295 306 312 317 320 316 296